Date,TemperatureHighF,TemperatureAvgF,TemperatureLowF,DewpointHighF,DewpointAvgF,DewpointLowF,HumidityHigh,HumidityAvg,HumidityLow,PressureMaxIn,PressureMinIn,WindSpeedMaxMPH,WindSpeedAvgMPH,GustSpeedMaxMPH,PrecipitationSumIn
2013-1-1,20,14,9,13,7,4,81,74,63,30.29,30.15,5,2,12,0.00
2013-1-2,31,19,8,22,12,3,81,75,60,30.24,30.09,5,1,11,0.00
2013-1-3,29,24,14,25,19,9,88,80,67,30.33,30.12,9,4,19,0.00
2013-1-4,33,22,11,24,16,7,87,80,68,30.32,30.21,7,2,23,0.00
2013-1-5,36,29,19,33,26,16,92,87,76,30.24,29.95,4,2,14,0.03
2013-1-6,35,22,15,32,18,12,89,84,81,30.34,29.94,8,4,20,0.01
2013-1-7,40,28,15,29,22,12,88,78,58,30.34,30.09,6,3,18,0.00
2013-1-8,45,36,26,34,29,22,86,75,60,30.12,30.01,7,2,16,0.00
2013-1-9,45,36,25,34,29,22,89,76,54,30.49,30.01,10,3,22,0.00
2013-1-10,42,34,24,39,28,21,95,81,57,30.49,29.81,9,4,22,0.48
2013-1-11,52,47,40,49,45,39,96,92,84,29.81,29.62,7,3,17,0.83
2013-1-12,52,37,23,47,32,20,90,82,75,30.00,29.65,10,5,18,0.01
2013-1-13,23,18,10,21,12,6,91,80,74,30.29,29.91,8,4,17,0.00
2013-1-14,22,13,7,12,8,3,87,79,64,30.49,30.29,4,1,7,0.00
2013-1-15,28,16,8,17,11,4,87,78,61,30.46,30.16,2,0,9,0.00
2013-1-16,34,25,11,29,19,8,87,76,63,30.16,29.87,7,1,23,0.00
2013-1-17,35,26,19,31,18,13,87,72,54,30.42,30.08,7,3,13,0.00
2013-1-18,44,33,17,33,25,13,85,74,65,30.44,29.92,8,3,23,0.05
2013-1-19,48,40,24,38,32,10,78,71,52,30.03,29.75,17,5,37,0.01
2013-1-20,24,16,12,12,6,3,73,64,54,30.35,30.03,13,6,29,0.00
2013-1-21,13,8,4,7,-2,-9,75,62,47,30.35,30.21,11,7,23,0.00
2013-1-22,12,7,0,1,-3,-8,78,62,53,30.46,30.34,8,4,16,0.00
2013-1-23,25,17,12,13,7,1,75,63,56,30.41,30.14,11,3,19,0.00
2013-1-24,21,13,5,8,2,-4,71,61,52,30.67,30.34,6,3,16,0.00
2013-1-25,34,24,18,21,15,7,87,70,54,30.35,30.00,9,4,21,0.00
2013-1-26,28,20,10,17,11,5,83,68,53,30.42,30.23,4,1,8,0.00
2013-1-27,41,30,25,39,25,15,95,82,64,30.35,29.84,6,2,24,0.34
2013-1-28,48,43,40,47,42,38,96,95,91,29.93,29.71,7,3,24,0.34
2013-1-29,62,54,41,59,52,39,97,93,87,29.71,29.39,8,3,19,0.78
2013-1-30,41,30,17,40,28,11,96,91,77,29.70,29.22,11,6,27,0.72
2013-1-31,17,17,17,11,11,11,77,77,77,29.70,29.70,9,9,16,0.00
2013-2-2,17,15,9,11,9,5,84,78,71,30.14,30.05,6,2,12,0.00
2013-2-3,23,20,13,18,15,8,92,81,70,30.10,29.98,8,3,18,0.00
2013-2-4,29,24,13,24,18,9,83,80,76,30.00,29.82,8,3,14,0.02
2013-2-5,33,26,13,28,21,9,88,84,79,30.11,29.83,7,2,16,0.01
2013-2-6,41,32,20,34,26,16,87,80,70,30.21,30.03,4,1,11,0.01
2013-2-7,35,33,30,34,31,27,95,93,85,30.07,29.86,7,2,18,0.79
2013-2-8,30,24,19,28,21,17,91,86,82,30.40,30.03,10,4,20,0.02
2013-2-9,34,29,20,29,25,18,91,86,78,30.39,30.02,6,2,14,0.02
2013-2-10,47,39,31,45,36,28,95,90,71,30.03,29.42,8,4,22,0.30
2013-2-11,40,32,28,33,25,21,80,74,70,30.08,29.52,13,9,34,0.01
2013-2-12,33,28,25,25,22,19,89,79,70,30.13,29.91,8,3,17,0.00
2013-2-13,42,34,24,34,28,21,91,82,68,29.92,29.71,6,1,13,0.00
2013-2-14,40,36,32,32,30,26,90,78,63,30.00,29.65,9,4,20,0.00
2013-2-15,32,26,19,29,16,8,90,67,41,30.22,29.99,9,6,19,0.00
2013-2-16,24,18,14,12,9,6,76,66,54,30.23,30.15,7,4,15,0.00
2013-2-17,34,23,11,23,14,6,80,68,55,30.22,29.91,5,2,16,0.00
2013-2-18,52,37,23,44,31,17,94,80,64,29.91,29.45,10,4,25,0.63
2013-2-19,22,14,9,18,8,3,85,79,74,30.28,29.68,12,9,25,0.38
2013-2-20,20,12,5,14,7,0,83,78,74,30.45,30.28,7,3,13,0.00
2013-2-21,29,22,13,25,18,9,91,84,79,30.40,29.92,11,4,22,0.00
2013-2-22,34,28,24,31,24,21,93,88,80,29.95,29.78,8,4,19,0.08
2013-2-23,30,24,19,22,19,14,87,81,73,29.99,29.93,6,2,15,0.01
2013-2-24,35,24,11,26,19,8,89,80,65,30.13,29.99,3,0,6,0.01
2013-2-25,39,32,23,31,26,20,89,79,69,30.15,29.92,7,2,18,0.01
2013-2-26,36,33,31,31,29,27,95,86,73,29.92,29.52,9,4,23,0.06
2013-2-27,32,31,29,31,29,27,95,93,91,29.78,29.57,6,2,12,0.20
2013-2-28,35,32,29,31,29,24,94,89,81,30.09,29.78,6,3,12,0.17
2013-3-1,29,26,24,24,21,17,89,83,77,30.24,30.09,6,3,14,0.01
2013-3-2,27,20,8,18,13,3,86,77,64,30.26,30.20,6,2,12,0.01
2013-3-3,31,18,5,16,10,2,88,73,44,30.20,30.10,3,0,5,0.00
2013-3-4,32,28,23,26,21,11,81,76,59,30.11,29.93,10,5,22,0.01
2013-3-5,32,30,25,30,28,23,94,92,81,30.09,29.82,8,4,16,0.17
2013-3-6,30,27,23,25,23,21,92,86,82,30.34,30.08,6,4,13,0.01
2013-3-7,35,28,23,27,23,18,87,80,67,30.42,30.34,2,1,6,0.13
2013-3-8,37,29,18,31,24,15,89,81,71,30.45,30.24,5,2,15,0.02
2013-3-9,41,36,32,37,33,28,91,86,82,30.25,29.78,8,4,16,0.11
2013-3-10,44,41,38,43,39,35,96,95,85,29.79,29.55,6,2,13,0.73
2013-3-11,41,35,31,40,33,26,96,93,86,29.84,29.57,9,3,21,0.08
2013-3-12,36,30,26,31,24,19,91,81,69,30.09,29.84,10,6,24,0.01
2013-3-13,34,28,23,21,18,13,83,68,45,30.36,30.08,8,6,16,0.00
2013-3-14,39,30,23,32,25,19,91,82,71,30.36,30.05,6,2,13,0.01
2013-3-15,44,36,29,37,32,27,94,87,72,30.06,29.71,4,1,13,0.01
2013-3-16,34,32,29,32,28,24,94,86,75,30.12,29.68,8,3,15,0.01
2013-3-17,35,31,25,28,24,17,83,73,65,30.20,29.93,8,5,18,0.00
2013-3-18,35,30,22,33,25,13,93,84,66,29.93,29.65,14,6,29,0.08
2013-3-19,33,24,17,20,14,9,73,66,52,30.15,29.87,13,8,27,0.01
2013-3-20,26,20,13,18,9,3,74,63,54,30.18,30.09,12,8,24,0.00
2013-3-21,32,22,13,18,12,7,81,66,50,30.12,30.03,5,2,12,0.00
2013-3-22,39,28,17,23,19,14,88,69,50,30.08,30.02,5,1,11,0.00
2013-3-23,42,34,25,26,23,18,85,65,45,30.12,29.99,5,1,14,0.00
2013-3-24,34,31,28,30,27,23,94,86,67,30.03,29.69,8,4,16,0.03
2013-3-25,36,31,27,29,26,22,93,80,71,30.12,29.78,9,6,15,0.05
2013-3-26,38,34,31,28,26,24,80,71,59,30.28,30.12,7,3,13,0.01
2013-3-27,43,36,30,29,25,21,81,66,44,30.35,30.28,5,1,12,0.00
2013-3-28,50,38,25,31,27,22,89,67,44,30.37,30.27,4,1,10,0.00
2013-3-29,55,44,32,34,30,27,82,61,39,30.30,30.20,5,0,8,0.00
2013-3-30,59,46,34,43,33,-100,86,65,50,30.21,29.83,6,2,18,0.00
2013-3-31,56,46,37,44,37,26,92,72,45,29.93,29.75,11,5,25,0.00
2013-4-1,40,34,28,26,20,16,78,60,39,30.22,29.92,9,5,17,0.00
2013-4-2,44,33,22,23,19,13,84,58,29,30.32,30.22,8,3,17,0.00
2013-4-3,48,36,23,23,19,14,82,54,27,30.45,30.30,5,1,12,0.00
2013-4-4,60,45,29,38,25,18,72,49,30,30.30,29.97,6,2,12,0.00
2013-4-5,55,44,33,37,27,21,81,55,28,30.20,30.01,8,2,21,0.00
2013-4-6,69,51,36,50,34,20,85,54,32,30.07,29.57,12,5,25,0.15
2013-4-7,64,51,40,46,41,36,88,70,46,29.92,29.65,9,2,18,0.15
2013-4-8,73,57,43,56,49,37,95,77,51,29.85,29.52,9,4,20,0.56
2013-4-9,75,54,43,62,49,39,90,84,63,29.87,29.73,10,4,21,0.03
2013-4-10,44,41,37,41,39,35,93,91,87,30.01,29.71,12,5,23,0.88
2013-4-11,49,43,39,46,41,34,95,92,85,29.76,29.56,13,4,29,0.72
2013-4-12,41,38,36,37,33,31,93,83,73,29.88,29.58,10,4,22,0.03
2013-4-13,49,40,34,35,31,27,87,70,52,29.97,29.87,10,4,21,0.01
2013-4-14,74,55,40,53,42,33,79,63,39,29.95,29.54,11,5,23,0.00
2013-4-15,65,54,42,55,48,38,95,82,54,29.98,29.57,10,2,24,0.50
2013-4-16,52,45,37,42,37,33,91,73,56,30.22,29.95,7,2,12,0.16
2013-4-17,50,44,41,48,40,33,95,84,66,30.24,29.71,10,5,22,1.94
2013-4-18,62,52,38,59,50,32,96,92,79,29.75,29.37,9,4,28,2.44
2013-4-19,38,37,35,32,30,28,81,75,68,29.98,29.52,12,8,28,0.04
2013-4-20,47,38,30,31,27,22,89,68,38,30.37,29.97,7,2,13,0.00
2013-4-21,56,45,34,40,33,28,80,65,50,30.46,30.24,7,4,21,0.00
2013-4-22,67,54,40,45,39,34,80,59,35,30.27,29.98,5,2,15,0.00
2013-4-23,56,44,38,49,41,35,93,90,64,30.02,29.89,8,3,16,0.54
2013-4-24,52,43,37,37,31,27,89,66,40,30.11,29.96,8,4,17,0.12
2013-4-25,54,44,37,38,29,21,86,57,29,30.29,30.06,12,5,24,0.02
2013-4-26,67,53,39,48,40,28,77,61,46,30.29,30.20,7,3,19,0.01
2013-4-27,65,56,42,49,45,40,92,70,47,30.26,29.96,5,1,13,0.00
2013-4-28,71,59,51,51,50,48,90,72,47,29.96,29.78,4,1,8,0.00
2013-4-29,76,64,49,59,53,46,91,71,48,29.86,29.66,8,2,17,0.00
2013-4-30,87,73,61,60,55,48,88,58,28,29.86,29.67,6,3,17,0.00
2013-5-1,84,75,64,56,52,47,70,49,29,30.05,29.85,5,2,15,0.00
2013-5-2,68,55,43,54,46,39,90,73,55,30.17,30.04,9,4,16,0.42
2013-5-3,56,47,41,54,45,38,94,92,90,30.11,29.85,7,2,15,0.82
2013-5-4,69,60,53,58,53,50,93,81,58,30.01,29.86,9,3,16,0.12
2013-5-5,75,62,48,53,48,41,96,66,29,30.00,29.90,7,2,17,0.01
2013-5-6,77,65,54,49,44,36,80,51,23,30.01,29.92,6,2,16,0.00
2013-5-7,80,67,51,47,38,28,79,40,16,30.02,29.92,6,1,10,0.00
2013-5-8,82,69,54,53,46,39,70,46,22,29.98,29.90,5,1,35,0.00
2013-5-9,71,64,61,60,57,51,95,80,58,29.91,29.74,5,1,16,0.19
2013-5-10,62,51,47,61,46,-100,95,88,81,29.97,29.73,7,3,13,0.10
2013-5-11,59,50,44,50,36,-100,93,63,29,30.08,29.86,13,5,30,0.01
2013-5-12,57,48,38,31,27,23,69,46,27,30.14,30.07,9,5,19,0.01
2013-5-13,70,54,35,41,30,22,81,46,20,30.16,29.93,6,1,18,0.00
2013-5-14,94,74,57,59,50,38,67,46,18,29.94,29.59,7,3,19,0.00
2013-5-15,84,76,64,56,48,36,58,38,19,29.79,29.61,6,3,19,0.00
2013-5-16,86,67,56,53,28,-100,73,43,21,29.89,29.79,5,1,14,0.00
2013-5-17,81,70,62,62,53,-100,82,64,44,29.96,29.86,6,2,14,0.01
2013-5-18,82,71,61,64,60,55,89,69,48,29.97,29.85,4,2,12,0.01
2013-5-19,90,75,62,67,63,57,90,69,44,29.87,29.65,6,2,19,0.19
2013-5-20,85,73,63,67,61,57,91,69,44,29.73,29.57,7,3,21,0.76
2013-5-21,80,71,62,65,61,59,90,72,50,29.64,29.59,6,2,21,0.69
2013-5-22,72,65,61,61,57,54,90,76,55,29.72,29.57,6,2,18,0.08
2013-5-23,64,58,51,55,50,44,93,78,53,30.24,29.73,7,3,15,0.06
2013-5-24,66,53,39,45,38,34,85,60,35,30.42,30.24,5,2,14,0.01
2013-5-25,55,52,49,49,42,35,84,71,54,30.36,30.22,6,2,11,0.09
2013-5-26,59,53,48,54,47,39,93,82,67,30.24,30.03,7,3,17,0.54
2013-5-27,70,62,56,64,59,54,95,89,80,30.06,29.77,8,4,15,0.19
2013-5-28,78,69,63,71,65,61,95,87,77,29.79,29.62,6,2,19,0.25
2013-5-29,86,73,62,71,65,59,92,76,54,29.87,29.67,8,2,18,0.18
2013-5-30,83,73,62,72,66,60,94,78,61,29.83,29.65,8,3,22,0.88
2013-5-31,73,68,62,68,64,60,94,87,76,29.79,29.64,5,2,17,0.91
2013-6-1,76,68,63,68,62,57,92,81,62,29.71,29.61,8,2,16,0.40
2013-6-2,63,59,50,59,51,46,91,77,62,30.01,29.71,6,3,14,0.40
2013-6-3,70,58,46,50,46,44,94,67,44,30.09,29.99,4,1,9,0.00
2013-6-4,72,63,52,52,49,45,86,62,42,30.11,29.99,6,2,15,0.00
2013-6-5,67,62,57,60,54,47,90,76,63,30.04,29.88,4,2,11,0.15
2013-6-6,70,61,55,59,55,50,94,81,67,29.90,29.82,4,1,14,0.44
2013-6-7,72,62,55,56,51,46,86,68,47,29.92,29.85,5,2,13,0.02
2013-6-8,76,66,50,54,49,44,88,57,35,29.93,29.88,4,1,10,0.00
2013-6-9,81,68,60,64,57,48,91,69,44,29.93,29.73,6,2,15,0.07
2013-6-10,78,68,57,64,60,55,95,78,60,29.84,29.70,7,2,18,0.04
2013-6-11,88,75,60,69,63,57,93,70,47,29.88,29.74,3,0,9,0.00
2013-6-12,93,80,71,75,70,65,87,72,50,29.83,29.52,13,2,19,0.05
2013-6-13,80,72,63,65,59,55,93,67,42,29.97,29.58,9,3,15,1.14
2013-6-14,79,69,56,60,55,52,88,65,41,30.09,29.93,4,1,11,0.01
2013-6-15,83,72,64,69,64,57,88,76,54,29.98,29.80,8,2,23,0.02
2013-6-16,87,74,65,66,63,59,91,70,40,29.90,29.83,5,2,18,0.02
2013-6-17,88,77,62,67,60,51,91,61,28,29.90,29.80,5,1,11,0.03
2013-6-18,79,70,59,66,57,52,85,65,48,30.01,29.82,7,2,14,0.03
2013-6-19,84,70,54,60,54,47,80,59,37,30.08,29.99,4,1,11,0.00
2013-6-20,90,74,64,65,59,54,73,60,37,30.07,30.01,4,2,9,0.00
2013-6-22,82,79,72,74,71,65,84,77,70,30.06,29.88,6,2,13,0.33
2013-6-23,89,74,67,73,67,63,92,81,59,29.97,29.81,4,1,13,0.37
2013-6-24,86,72,66,73,67,64,94,86,64,30.05,29.84,5,1,15,0.75
2013-6-25,85,77,67,75,71,64,94,83,70,29.89,29.73,4,1,17,0.02
2013-6-26,84,76,70,73,69,66,93,79,62,29.76,29.65,5,2,12,0.05
2013-6-27,89,79,69,72,68,60,94,71,46,29.78,29.68,8,3,20,0.02
2013-6-28,82,74,64,63,61,58,84,65,46,29.72,29.59,11,4,20,0.00
2013-6-29,72,66,64,65,62,58,94,86,68,29.75,29.57,5,2,17,0.49
2013-6-30,79,69,60,62,58,51,91,70,44,29.96,29.75,7,2,15,0.13
2013-7-1,79,68,55,54,51,47,81,57,34,30.03,29.95,7,2,17,0.00
2013-7-2,77,67,56,57,52,42,84,61,30,30.05,29.98,6,2,15,0.00
2013-7-3,78,65,55,59,55,52,89,72,48,30.04,29.98,3,0,8,0.00
2013-7-4,86,74,60,65,61,57,91,68,41,30.04,29.96,3,1,11,0.00
2013-7-5,87,75,62,68,62,58,86,65,38,30.02,29.94,3,1,10,0.00
2013-7-6,88,74,63,70,64,59,89,72,47,29.99,29.91,3,1,9,0.00
2013-7-7,92,81,69,72,69,66,89,69,46,29.94,29.88,3,1,12,0.00
2013-7-8,89,78,70,75,70,-100,93,78,60,29.97,29.88,8,2,17,0.49
2013-7-9,87,79,74,78,74,71,93,85,70,29.95,29.81,5,1,24,0.17
2013-7-10,83,76,66,75,65,-100,94,71,49,29.96,29.79,8,3,15,0.01
2013-7-11,81,71,61,63,58,54,91,68,41,30.06,29.96,4,1,11,0.00
2013-7-12,83,72,58,64,57,53,85,64,38,30.11,30.02,2,0,8,0.00
2013-7-13,83,73,61,63,60,55,87,66,45,30.10,30.03,5,1,12,0.00
2013-7-14,87,78,68,71,67,61,84,70,57,30.14,30.07,4,2,10,0.00
2013-7-15,90,81,72,76,71,67,85,74,57,30.20,30.13,3,1,10,0.00
2013-7-16,92,82,73,76,74,70,92,76,56,30.24,30.17,3,1,9,0.00
2013-7-17,95,84,72,77,73,69,89,71,49,30.26,30.12,4,0,9,0.00
2013-7-18,95,85,75,76,74,71,88,70,48,30.13,29.90,5,1,15,0.00
2013-7-19,95,85,73,73,72,67,88,67,46,29.90,29.71,9,2,20,0.05
2013-7-20,86,77,69,69,64,-100,85,67,46,29.87,29.77,5,1,10,0.05
2013-7-21,85,76,68,71,67,63,92,76,56,29.89,29.79,4,1,10,0.00
2013-7-22,88,77,65,73,67,60,92,74,54,29.84,29.68,7,1,18,0.05
2013-7-23,78,70,63,65,61,55,92,73,49,29.93,29.68,7,3,16,0.05
2013-7-24,75,66,56,57,54,51,89,68,45,30.03,29.93,5,1,12,0.00
2013-7-25,82,70,56,62,57,51,84,65,47,30.07,29.98,4,1,12,0.00
2013-7-26,76,68,61,69,62,55,92,80,57,29.99,29.85,7,1,14,0.08
2013-7-27,64,60,56,56,51,47,91,74,53,29.93,29.87,8,3,14,0.01
2013-7-28,70,61,53,53,50,47,84,68,49,30.01,29.87,9,3,17,0.00
2013-7-29,78,64,49,59,53,46,92,71,47,30.11,30.01,5,1,11,0.00
2013-7-30,67,63,59,64,60,54,95,90,81,30.11,30.01,4,2,14,0.09
2013-7-31,78,69,64,67,64,61,96,86,63,30.01,29.92,5,1,9,0.04
2013-8-1,81,69,58,62,57,51,95,70,36,29.98,29.88,8,2,18,0.01
2013-8-2,85,74,67,71,65,60,91,74,57,29.91,29.80,5,1,15,0.21
2013-8-3,80,71,62,65,58,51,91,65,38,30.08,29.90,6,1,13,0.07
2013-8-4,80,70,58,61,55,50,88,63,37,30.15,30.05,4,1,11,0.01
2013-8-5,74,66,59,65,60,54,93,82,72,30.06,29.82,5,2,14,0.20
2013-8-6,84,74,66,74,69,64,94,85,69,29.85,29.76,5,0,12,0.04
2013-8-7,86,78,67,74,69,62,93,77,48,29.90,29.74,6,2,12,0.00
2013-8-8,79,71,63,65,62,58,92,76,58,29.97,29.90,5,1,11,0.00
2013-8-9,82,72,61,68,62,54,85,70,57,30.01,29.93,4,1,10,0.00
2013-8-10,80,69,58,64,58,54,92,69,42,30.10,30.01,7,2,12,0.00
2013-8-11,83,71,56,66,60,52,89,70,51,30.09,29.98,5,1,14,0.00
2013-8-12,83,74,67,68,64,60,84,72,53,29.99,29.84,6,2,12,0.00
2013-8-13,73,64,54,61,50,-100,90,66,38,30.11,29.91,6,2,14,0.00
2013-8-14,75,62,48,56,48,-100,90,68,39,30.19,30.10,5,1,11,0.00
2013-8-15,75,59,54,57,41,-100,87,67,42,30.14,30.07,4,0,10,0.00
2013-8-16,81,65,52,60,51,-100,90,66,36,30.14,30.09,3,1,12,0.00
2013-8-17,80,68,57,61,54,-100,86,64,42,30.19,30.11,5,1,12,0.00
2013-8-18,82,70,56,62,57,52,88,67,43,30.16,30.05,4,0,11,0.00
2013-8-19,84,68,59,66,52,-100,87,71,50,30.08,29.98,4,1,10,0.00
2013-8-20,87,74,63,68,63,-100,91,73,49,30.05,29.97,3,1,10,0.00
2013-8-21,89,78,66,70,66,62,88,70,49,30.02,29.92,5,1,13,0.00
2013-8-22,77,72,66,70,67,63,93,83,72,30.11,29.94,6,1,14,0.59
2013-8-23,82,71,61,67,61,52,95,72,48,30.12,30.06,5,1,13,0.02
2013-8-24,86,73,62,70,61,-100,84,69,56,30.19,30.10,4,1,11,0.00
2013-8-25,90,78,67,70,67,63,89,71,48,30.19,30.08,5,1,14,0.00
2013-8-26,91,80,68,74,69,62,83,70,51,30.10,29.93,4,1,10,0.00
2013-8-27,93,81,74,74,71,69,86,75,51,29.95,29.84,6,2,16,0.00
2013-8-28,91,85,75,77,74,69,85,71,63,29.96,29.87,4,2,10,0.00
2013-8-29,85,75,67,72,69,65,95,83,61,30.03,29.91,4,1,9,0.00
2013-8-30,98,81,69,77,70,66,92,74,41,29.92,29.70,7,1,17,0.04
2013-8-31,81,74,69,71,67,-100,91,81,70,29.78,29.71,6,1,12,0.05
2013-9-1,89,75,61,72,66,59,95,76,50,29.79,29.67,5,1,12,0.01
2013-9-2,78,68,60,63,59,54,89,74,48,29.96,29.79,5,2,13,0.00
2013-9-3,79,65,53,58,54,50,91,71,45,30.06,29.96,3,0,10,0.00
2013-9-4,85,68,52,63,56,49,91,67,39,30.10,30.01,5,1,9,0.00
2013-9-5,80,70,63,68,61,52,83,74,60,30.17,30.06,6,2,12,0.00
2013-9-6,87,72,60,65,59,50,81,64,46,30.16,29.96,4,1,10,0.00
2013-9-7,89,75,65,70,63,-100,85,70,46,29.96,29.82,4,1,14,0.01
2013-9-8,82,76,70,71,68,66,87,78,67,29.94,29.84,8,3,15,0.01
2013-9-9,97,81,68,74,70,65,94,72,44,29.87,29.75,4,1,10,0.00
2013-9-10,96,84,73,69,64,61,69,53,33,29.95,29.83,7,2,19,0.00
2013-9-11,89,78,72,71,67,64,87,69,50,29.99,29.93,5,1,14,0.03
2013-9-12,79,71,58,67,56,47,91,64,33,30.06,29.94,9,3,18,0.02
2013-9-13,70,59,49,50,42,32,85,56,25,30.17,30.05,6,1,13,0.00
2013-9-14,73,58,43,47,42,-100,89,59,32,30.15,29.97,4,1,11,0.00
2013-9-15,60,57,54,58,52,45,94,83,66,30.14,29.95,3,1,11,0.46
2013-9-16,69,58,51,54,49,46,94,73,46,30.33,30.14,6,2,13,0.01
2013-9-17,70,59,47,57,51,43,91,77,60,30.28,30.05,5,1,12,0.01
2013-9-18,71,63,60,68,56,54,90,79,73,30.05,29.86,3,1,8,0.70
2013-9-19,91,79,68,70,68,63,91,71,47,29.87,29.69,7,2,24,0.07
2013-9-20,71,66,57,65,58,51,94,79,51,29.84,29.72,8,3,20,0.27
2013-9-21,68,57,49,52,47,-100,92,72,49,29.92,29.82,8,2,14,0.01
2013-9-22,71,57,44,50,46,41,92,70,40,30.03,29.92,4,1,12,0.00
2013-9-23,72,59,47,50,47,43,87,67,43,30.06,29.95,6,3,13,0.00
2013-9-24,74,61,50,54,50,45,85,68,44,29.98,29.86,6,2,13,0.00
2013-9-25,77,63,49,53,50,46,91,67,39,29.92,29.85,4,1,10,0.00
2013-9-26,80,67,51,57,52,48,92,63,41,30.01,29.91,5,1,11,0.00
2013-9-27,82,68,56,55,50,46,81,58,29,30.09,29.97,4,2,11,0.00
2013-9-28,82,67,56,66,56,-100,92,71,50,29.99,29.83,8,3,21,0.02
2013-9-29,72,59,49,56,46,39,95,68,30,30.05,29.94,5,1,10,0.02
2013-9-30,77,62,49,51,47,44,89,63,32,29.97,29.82,5,1,12,0.00
2013-10-1,75,71,68,64,64,63,86,78,67,29.92,29.87,1,0,8,0.00
2013-10-2,82,71,63,66,60,41,94,73,28,30.02,29.90,6,1,12,0.00
2013-10-3,79,70,65,70,66,62,96,88,73,29.90,29.76,5,1,13,1.25
2013-10-4,75,70,66,70,66,62,93,88,74,29.92,29.83,4,0,12,0.03
2013-10-5,76,70,59,71,65,51,94,86,70,29.85,29.72,6,1,15,0.30
2013-10-6,59,50,44,51,42,37,90,73,53,29.78,29.70,7,2,16,0.01
2013-10-7,71,54,42,48,45,40,95,73,40,30.05,29.77,6,2,17,0.01
2013-10-8,76,60,45,50,46,42,90,64,33,30.14,30.05,4,1,11,0.01
2013-10-9,73,60,47,51,46,43,89,63,35,30.18,30.07,4,1,11,0.00
2013-10-10,75,61,48,57,50,43,86,69,44,30.12,29.98,3,0,9,0.00
2013-10-11,77,65,56,60,54,52,87,70,46,29.99,29.85,7,2,18,0.00
2013-10-12,70,62,50,61,49,-100,89,67,37,30.17,29.86,7,2,17,0.03
2013-10-13,64,51,38,43,37,31,89,62,30,30.38,30.17,4,1,12,0.02
2013-10-14,64,52,39,46,41,35,91,67,43,30.38,30.05,5,2,17,0.00
2013-10-15,68,56,47,61,49,40,94,77,59,30.05,29.74,6,2,20,0.16
2013-10-16,52,50,45,45,44,40,91,80,75,29.94,29.84,6,2,16,0.01
2013-10-17,59,49,42,46,42,36,94,80,44,29.92,29.81,6,1,13,0.11
2013-10-18,49,45,40,41,38,36,91,77,65,29.96,29.83,7,2,16,0.01
2013-10-19,53,45,36,39,34,-100,85,69,47,29.93,29.78,8,2,19,0.01
2013-10-20,64,50,36,46,40,33,90,72,47,29.84,29.69,5,1,18,0.01
2013-10-21,56,43,33,45,31,23,78,63,41,29.98,29.79,9,4,20,0.00
2013-10-22,39,33,27,35,30,23,94,87,74,30.00,29.90,2,0,6,0.31
2013-10-23,42,37,33,33,31,28,94,78,60,30.05,29.96,6,2,15,0.10
2013-10-24,40,36,30,34,27,23,88,70,53,30.34,30.04,10,3,15,0.01
2013-10-25,52,45,24,34,28,21,88,53,38,30.42,30.05,6,2,17,0.00
2013-10-26,53,44,32,36,29,-100,81,57,42,30.09,29.88,10,4,18,0.00
2013-10-27,56,41,28,33,29,25,88,66,39,30.09,29.95,6,1,17,0.00
2013-10-28,59,44,33,43,34,-100,85,72,49,30.33,30.03,7,2,15,0.00
2013-10-29,55,45,35,46,38,32,91,78,59,30.32,30.09,5,2,15,0.00
2013-10-30,59,53,49,58,52,45,96,94,85,30.09,29.74,5,1,11,1.08
2013-10-31,62,56,44,61,54,40,96,93,87,29.74,29.27,8,3,22,0.68
2013-11-1,47,45,43,44,42,40,92,88,80,29.75,29.44,7,3,15,0.02
2013-11-2,50,41,34,41,34,-100,94,81,59,30.14,29.75,7,2,15,0.01
2013-11-3,51,40,28,39,33,26,93,78,55,30.29,30.14,5,1,14,0.01
2013-11-4,57,49,42,44,40,36,83,72,55,30.20,30.03,7,2,15,0.01
2013-11-5,54,52,49,51,48,44,94,87,75,30.21,29.88,7,2,22,0.07
2013-11-6,56,46,33,54,42,28,94,86,70,30.20,29.75,9,4,18,0.33
2013-11-7,42,33,27,35,29,24,89,83,76,30.27,30.20,8,1,16,0.01
2013-11-8,49,39,26,35,30,23,92,70,44,30.33,29.89,8,2,18,0.00
2013-11-9,57,49,41,41,36,-100,77,65,52,30.16,29.85,11,5,24,0.00
2013-11-10,48,40,31,33,30,27,85,69,52,30.37,30.16,7,2,16,0.00
2013-11-11,47,38,23,37,30,17,93,76,62,30.56,30.08,8,3,15,0.05
2013-11-12,31,24,19,20,16,13,80,74,57,30.76,30.56,6,3,12,0.01
2013-11-13,42,30,18,22,18,13,82,63,41,30.63,30.16,6,2,16,0.00
2013-11-14,52,41,31,30,25,19,66,53,41,30.16,29.92,5,2,17,0.00
2013-11-15,51,42,36,37,30,23,84,64,49,29.96,29.88,5,1,13,0.00
2013-11-16,58,50,39,54,46,-100,92,88,82,29.88,29.50,8,4,24,0.10
2013-11-17,67,54,42,62,50,37,94,86,74,29.78,29.11,14,6,29,0.34
2013-11-18,42,38,30,38,30,25,84,74,59,30.27,29.79,11,6,25,0.01
2013-11-19,41,33,24,30,27,21,91,79,62,30.35,30.23,4,1,12,0.00
2013-11-20,40,36,31,37,31,27,93,85,72,30.24,30.03,6,3,14,0.24
2013-11-21,46,43,39,43,40,36,91,90,86,30.23,30.07,4,1,11,0.16
2013-11-22,41,34,24,39,30,20,93,85,75,30.51,30.23,8,4,16,0.02
2013-11-23,24,20,13,20,11,-100,86,70,53,30.76,30.49,10,5,18,0.01
2013-11-24,27,19,9,12,8,5,84,64,39,30.77,30.40,4,1,10,0.00
2013-11-25,32,28,20,28,21,12,87,74,57,30.40,30.09,5,2,14,0.01
2013-11-26,32,28,16,27,21,7,88,75,60,30.24,30.06,8,4,18,0.01
2013-11-27,26,19,12,15,9,5,76,67,51,30.32,30.23,7,3,13,0.00
2013-11-28,32,25,16,19,16,12,86,67,57,30.52,30.17,5,2,11,0.00
2013-11-29,34,25,13,23,17,9,88,74,54,30.63,30.38,4,1,13,0.00
2013-11-30,50,36,26,34,27,-100,87,73,54,30.37,30.04,5,1,12,0.00
2013-12-1,43,35,27,32,28,24,90,78,63,30.13,29.97,3,1,9,0.00
2013-12-2,43,37,33,35,32,29,91,83,67,29.97,29.67,6,2,13,0.02
2013-12-3,45,41,37,44,40,35,96,95,91,29.68,29.61,7,2,12,0.01
2013-12-4,52,45,31,51,44,27,97,95,87,29.76,29.46,10,2,20,0.01
2013-12-5,30,22,18,27,15,10,88,75,67,30.31,29.73,11,7,27,0.00
2013-12-6,18,15,11,11,8,5,79,72,63,30.61,30.30,7,4,11,0.00
2013-12-7,17,11,6,5,2,-100,83,71,55,30.76,30.60,5,2,10,0.00
2013-12-8,22,19,12,20,14,5,91,81,66,30.64,29.99,8,3,23,0.00
2013-12-9,22,12,-5,20,7,-9,92,81,70,30.28,29.99,10,3,19,0.00
2013-12-10,20,12,-2,12,5,-7,84,73,65,30.33,30.06,12,3,27,0.01
2013-12-11,18,11,-2,15,6,-8,90,80,65,30.64,30.29,9,2,16,0.01
2013-12-12,21,10,-3,13,4,-8,86,76,67,30.61,30.25,8,2,15,0.00
2013-12-13,28,21,11,24,17,7,90,84,77,30.25,30.07,7,2,15,0.00
2013-12-14,29,25,17,27,22,-100,93,89,87,30.09,29.95,7,2,13,0.02
2013-12-15,18,13,9,15,8,3,87,79,72,30.16,30.02,9,4,21,0.02
2013-12-16,19,14,8,16,11,4,92,85,76,30.16,30.03,4,1,8,0.00
2013-12-17,33,25,18,27,20,13,93,83,69,30.16,30.01,10,4,18,0.00
2013-12-18,37,25,10,30,18,7,87,75,53,30.18,29.83,7,2,15,0.00
2013-12-19,39,35,28,35,31,25,94,87,78,29.89,29.76,4,1,11,0.35
2013-12-20,34,31,27,32,30,25,95,94,93,29.84,29.72,4,2,10,0.23
2013-12-21,31,28,26,30,25,-100,95,93,92,29.87,29.63,5,2,13,0.01
2013-12-22,31,27,20,30,25,16,95,92,87,30.19,29.62,6,3,17,0.01
2013-12-23,20,5,0,17,1,-5,89,82,78,30.55,30.18,7,4,17,0.01
2013-12-24,19,4,-7,13,-1,-11,85,81,78,30.63,30.35,5,1,13,0.00
2013-12-25,26,23,18,23,19,13,90,86,75,30.36,30.16,7,2,14,0.00
2013-12-26,34,25,13,30,21,10,89,83,76,30.29,30.15,7,2,16,0.01
2013-12-27,39,31,20,33,26,18,93,84,76,30.29,30.11,4,1,13,0.07
2013-12-28,45,38,33,36,31,-100,88,78,69,30.11,29.80,6,2,12,0.14
2013-12-29,38,24,4,32,20,-3,94,84,75,30.27,29.78,10,6,20,0.01
2013-12-30,9,4,-1,4,-2,-8,86,77,68,30.38,30.24,6,1,11,0.00
2013-12-31,13,6,-5,8,2,-9,87,84,80,30.42,30.25,6,1,13,0.00
2014-1-1,18,13,10,15,9,6,89,85,82,30.30,30.22,6,3,15,0.00
2014-1-2,13,9,0,8,5,-5,84,81,76,30.48,30.22,7,3,14,0.00